THOR ABLESTAR DEB, 3740

Orbit data source: Space-Track

THOR ABLESTAR DEB, 3740 is space debris in LEO originally from a launch on Thu, 29 Jun 1961 UTC launched from the Air Force Eastern Test Range (AFETR). Debris objects in space refer to the collection of defunct objects orbiting the Earth. Examples of debris include non-operational satellites, rocket bodies, and fragments generated from explosions, collisions, or faulty payload assembly.

Loading next visibility...
Identifier
3740, 1961-015JB
Orbit
LEO
Country
Flag of USUS
Related business
Manufacturer
Unknown
Mission
Spacecraft
Bus & Motor
Unknown
Mass
Unknown
Launch date (UTC)
1961-06-29 (65 years ago)
Launch vehicle
Unknown
Launch site
Air Force Eastern Test Range (AFETR)
Object type
Payload
Rocket body
Debris
Shape & HBR
Unknown shape, 0.1 m
Radar Cross Section
Small (<0.1 m²)

Expand to show TLE details & history
Last TLE update: 1 day ago

TLE from 1 day ago
0 THOR ABLESTAR DEB
1 03740U 61015JB  26071.75051566  .00000273  00000-0  18850-3 0  9995
2 03740  66.3348 297.3778 0077119  85.6372 275.3521 14.12308942308410
Epoch: 2026-03-12T18:00Z
TLE epoch observation values (Epoch: 2026-03-12T18:00:44.553Z)
Latitude
0.00004°
Longitude
-143.20374°
Altitude
848.768 km
Speed
7.431 km/s
True Right ascension
19h 49m 30s
True Declination
0° 00' 00"
Sunlit
Object was in daylight at epoch
Visualization orbit readout
Latitude
Unknown
Longitude
Unknown
Altitude
Unknown
Speed
Unknown
Apparent Right ascension
Unknown
Apparent Declination
Unknown
Sunlit
N/A
Visualization observer readout
Local Sidereal Time
10:21:47
Azimuth
Unknown
Elevation
Unknown
Doppler factor
Unknown
Orbital elements
Apogee altitude
905.654 km
Perigee altitude
794.17 km
Semi-major axis
7,228.049 km
Eccentricity
0.00771
Inclination
66.3348°
RAAN
297.3778°
Arg. of periapsis
85.6372°
True anomaly
274.47148°
Mean anomaly
275.3521°
Eccentric anomaly
274.91186°
Mean motion
3.53193 °/min
Orbital period
101.93 mins
BSTAR
0.0001885
Loading maneuver chart data...
Computing Atmospheric mass density...
Loading historical data...
Loading historical data...
Loading historical data...
Loading historical data...
Loading historical data...
Loading historical data...
Loading historical data...

Documentation

Showing up to 5 results
|